Manchester, NH

1:58 PM EST on February 24, 2018 (GMT -0500)
Manchester

Weather History for KMHT - July, 2014

Change the Weather History Date:

Monday, July 21, 2014

  Actual Average Record
Temperature  
Mean Temperature 70 °F 73 °F  
Max Temperature 82 °F 83 °F 97 °F (1955)
Min Temperature 59 °F 63 °F 42 °F (1929)
Degree Days  
Heating Degree Days 0 0  
Month to date heating degree days 0  
Since 1 June heating degree days 58  
Since 1 July heating degree days 0  
Cooling Degree Days 6 8  
Month to date cooling degree days 160  
Year to date cooling degree days 310  
Since 1 June cooling degree days 280  
Growing Degree Days 20 (Base 50)    
Moisture  
Dew Point 56 °F    
Average Humidity 63    
Maximum Humidity 90    
Minimum Humidity 35    
Precipitation  
Precipitation 0.00 in 0.14 in 0.75 in (1938)
Month to date precipitation 2.49  
Year to date precipitation 24.32  
Snow  
Snow 0.00 in - - ()
Month to date snowfall  
Since 1 July snowfall  
Snow Depth -    
Sea Level Pressure  
Sea Level Pressure 30.20 in    
Wind  
Wind Speed 3 mph (ESE)    
Max Wind Speed 10 mph    
Max Gust Speed -    
Visibility 10 miles    
Events      
T = Trace of Precipitation, MM = Missing Value Source: NWS Daily Summary

Daily Weather History Graph

Daily Weather History Graph

Search for Another Location

Airport or City:

Trip Planner

Search our weather history database for the weather conditions in past years. The results will help you decide how hot, cold, wet, or windy it might be!

Date:

Astronomy

Jul. 21, 2014 Rise Set
Actual Time 5:25 AM EDT 8:18 PM EDT
Civil Twilight 4:52 AM EDT 8:51 PM EDT
Nautical Twilight 4:09 AM EDT 9:33 PM EDT
Astronomical Twilight 3:20 AM EDT 10:22 PM EDT
Moon 1:16 AM EDT (7/21) 3:56 PM EDT (7/21)
Length of Visible Light 15h 58m
Length of Day
14h 52m
Waning Crescent, 24% of the Moon is Illuminated
Jul 21
Waning Crescent
Jul 26
New
Aug 3
First Quarter
Aug 10
Full
Aug 17
Last Quarter

Hourly Weather History & Observations

Time (EDT) Temp. Heat Index Dew Point Humidity Pressure Visibility Wind Dir Wind Speed Gust Speed Precip Events Conditions
12:53 AM 63.0 °F - 57.9 °F 84% 30.20 in 10.0 mi Calm Calm - N/A   Clear
1:53 AM 62.1 °F - 57.0 °F 84% 30.20 in 10.0 mi Calm Calm - N/A   Partly Cloudy
2:53 AM 61.0 °F - 55.9 °F 83% 30.19 in 10.0 mi NNW 4.6 mph - N/A   Partly Cloudy
3:53 AM 60.1 °F - 55.9 °F 86% 30.19 in 10.0 mi Calm Calm - N/A   Partly Cloudy
4:53 AM 59.0 °F - 55.9 °F 90% 30.21 in 10.0 mi Calm Calm - N/A   Partly Cloudy
5:53 AM 59.0 °F - 55.0 °F 87% 30.22 in 10.0 mi NNW 3.5 mph - N/A   Mostly Cloudy
6:53 AM 60.1 °F - 55.9 °F 86% 30.22 in 10.0 mi NNW 6.9 mph - N/A   Partly Cloudy
7:53 AM 62.1 °F - 57.0 °F 84% 30.24 in 10.0 mi NNW 5.8 mph - N/A   Partly Cloudy
8:53 AM 66.9 °F - 57.0 °F 70% 30.23 in 10.0 mi NNW 4.6 mph - N/A   Partly Cloudy
9:53 AM 71.1 °F - 57.9 °F 63% 30.24 in 10.0 mi Calm Calm - N/A   Partly Cloudy
10:53 AM 73.9 °F - 55.0 °F 52% 30.23 in 10.0 mi Calm Calm - N/A   Scattered Clouds
11:53 AM 75.9 °F - 52.0 °F 43% 30.22 in 10.0 mi Calm Calm - N/A   Partly Cloudy
12:53 PM 80.1 °F - 50.0 °F 35% 30.20 in 10.0 mi ENE 4.6 mph - N/A   Partly Cloudy
1:53 PM 79.0 °F - 52.0 °F 39% 30.19 in 10.0 mi WSW 3.5 mph - N/A   Partly Cloudy
2:53 PM 81.0 °F 80.4 °F 53.1 °F 38% 30.18 in 10.0 mi Calm Calm - N/A   Partly Cloudy
3:53 PM 82.0 °F 81.4 °F 55.0 °F 39% 30.16 in 10.0 mi East 5.8 mph - N/A   Partly Cloudy
4:53 PM 82.0 °F 81.3 °F 54.0 °F 38% 30.15 in 10.0 mi East 6.9 mph - N/A   Partly Cloudy
5:53 PM 80.1 °F 80.6 °F 57.9 °F 47% 30.15 in 10.0 mi ESE 10.4 mph - N/A   Partly Cloudy
6:53 PM 78.1 °F - 57.9 °F 50% 30.16 in 10.0 mi SE 10.4 mph - N/A   Partly Cloudy
7:53 PM 75.9 °F - 57.9 °F 54% 30.17 in 10.0 mi South 6.9 mph - N/A   Partly Cloudy
8:53 PM 73.0 °F - 59.0 °F 61% 30.18 in 10.0 mi SE 5.8 mph - N/A   Partly Cloudy
9:53 PM 71.1 °F - 59.0 °F 66% 30.19 in 10.0 mi SSE 4.6 mph - N/A   Partly Cloudy
10:53 PM 69.1 °F - 59.0 °F 70% 30.18 in 10.0 mi SSE 3.5 mph - N/A   Clear
11:53 PM 68.0 °F - 57.9 °F 70% 30.18 in 10.0 mi SE 4.6 mph - N/A   Clear